Year,Month,Day,Hour,Minute,Value (Times are PST for temperature in C)
2008,05,17,00,00,13.50
2008,05,17,00,01,13.50
2008,05,17,00,02,13.50
2008,05,17,00,03,13.40
2008,05,17,00,04,13.40
2008,05,17,00,05,13.40
2008,05,17,00,06,13.40
2008,05,17,00,07,13.40
2008,05,17,00,08,13.40
2008,05,17,00,09,13.40
2008,05,17,00,10,13.30
2008,05,17,00,11,13.30
2008,05,17,00,12,13.30
2008,05,17,01,02,12.80
2008,05,17,01,03,12.80
2008,05,17,01,04,12.80
2008,05,17,01,05,12.70
2008,05,17,01,06,12.70
2008,05,17,01,07,12.70
2008,05,17,01,08,12.70
2008,05,17,01,09,12.70
2008,05,17,01,10,12.70
2008,05,17,01,11,12.60
2008,05,17,01,12,12.60
2008,05,17,01,13,12.60
2008,05,17,01,14,12.60
2008,05,17,01,15,12.50
2008,05,17,01,16,12.50
2008,05,17,01,17,12.50
2008,05,17,01,18,12.40
2008,05,17,01,19,12.40
2008,05,17,01,20,12.40
2008,05,17,01,21,12.40
2008,05,17,01,22,12.40
2008,05,17,01,23,12.40
2008,05,17,01,24,12.40
2008,05,17,01,25,12.30
2008,05,17,01,26,12.30
2008,05,17,01,27,12.30
2008,05,17,01,28,12.30
2008,05,17,01,29,12.30
2008,05,17,01,30,12.30
2008,05,17,01,31,12.30
2008,05,17,01,32,12.30
2008,05,17,01,33,12.30
2008,05,17,01,34,12.30
2008,05,17,01,35,12.30
2008,05,17,01,36,12.20
2008,05,17,01,37,12.30
2008,05,17,01,38,12.20
2008,05,17,01,39,12.20
2008,05,17,01,40,12.20
2008,05,17,01,41,12.20
2008,05,17,01,42,12.20
2008,05,17,01,43,12.20
2008,05,17,01,44,12.20
2008,05,17,01,45,12.20
2008,05,17,01,46,12.20
2008,05,17,01,47,12.20
2008,05,17,01,48,12.20
2008,05,17,01,49,12.10
2008,05,17,01,50,12.10
2008,05,17,01,51,12.10
2008,05,17,01,52,12.10
2008,05,17,01,53,12.10
2008,05,17,01,54,12.00
2008,05,17,01,55,12.00
2008,05,17,01,56,12.00
2008,05,17,01,57,12.00
2008,05,17,01,58,11.90
2008,05,17,01,59,11.90
2008,05,17,02,00,11.90
2008,05,17,02,01,11.90
2008,05,17,02,02,11.90
2008,05,17,02,03,11.90
2008,05,17,02,04,11.90
2008,05,17,02,05,11.90
2008,05,17,02,06,11.90
2008,05,17,02,07,11.90
2008,05,17,02,08,11.80
2008,05,17,02,09,11.80
2008,05,17,02,10,11.80
2008,05,17,02,11,11.80
2008,05,17,02,12,11.80
2008,05,17,02,13,11.80
2008,05,17,02,14,11.80
2008,05,17,02,15,11.80
2008,05,17,02,16,11.80
2008,05,17,02,17,11.80
2008,05,17,02,18,11.80
2008,05,17,02,19,11.80
2008,05,17,02,20,11.80
2008,05,17,02,21,11.80
2008,05,17,02,22,11.80
2008,05,17,02,23,11.80
2008,05,17,02,24,11.70
2008,05,17,02,25,11.70
2008,05,17,02,26,11.70
2008,05,17,02,27,11.70
2008,05,17,02,28,11.70
2008,05,17,02,29,11.70
2008,05,17,02,30,11.70
2008,05,17,02,31,11.70
2008,05,17,02,32,11.70
2008,05,17,02,33,11.70
2008,05,17,02,34,11.60
2008,05,17,02,35,11.60
2008,05,17,02,36,11.60
2008,05,17,02,37,11.60
2008,05,17,02,38,11.60
2008,05,17,02,39,11.60
2008,05,17,02,40,11.60
2008,05,17,02,41,11.50
2008,05,17,02,42,11.50
2008,05,17,02,43,11.50
2008,05,17,02,44,11.50
2008,05,17,02,45,11.40
2008,05,17,02,46,11.40
2008,05,17,02,47,11.40
2008,05,17,02,48,11.40
2008,05,17,02,49,11.40
2008,05,17,02,50,11.40
2008,05,17,02,51,11.40
2008,05,17,02,52,11.40
2008,05,17,02,53,11.40
2008,05,17,02,54,11.40
2008,05,17,02,55,11.40
2008,05,17,02,56,11.40
2008,05,17,02,57,11.40
2008,05,17,02,58,11.40
2008,05,17,02,59,11.40
2008,05,17,03,00,11.40
2008,05,17,03,01,11.40
2008,05,17,03,02,11.40
2008,05,17,03,03,11.40
2008,05,17,03,04,11.30
2008,05,17,03,05,11.30
2008,05,17,03,06,11.30
2008,05,17,03,07,11.30
2008,05,17,03,08,11.30
2008,05,17,03,09,11.30
2008,05,17,03,10,11.30
2008,05,17,03,11,11.30
2008,05,17,03,12,11.30
2008,05,17,03,13,11.30
2008,05,17,03,14,11.30
2008,05,17,03,15,11.30
2008,05,17,03,16,11.30
2008,05,17,03,17,11.30
2008,05,17,03,18,11.30
2008,05,17,03,19,11.20
2008,05,17,03,20,11.20
2008,05,17,03,21,11.20
2008,05,17,03,22,11.20
2008,05,17,03,23,11.20
2008,05,17,03,24,11.20
2008,05,17,03,25,11.20
2008,05,17,03,26,11.10
2008,05,17,03,27,11.10
2008,05,17,03,28,11.10
2008,05,17,03,29,11.10
2008,05,17,03,30,11.10
2008,05,17,03,31,11.10
2008,05,17,03,32,11.10
2008,05,17,03,33,11.10
2008,05,17,03,34,11.10
2008,05,17,03,35,11.10
2008,05,17,03,36,11.10
2008,05,17,03,37,11.10
2008,05,17,03,38,11.10
2008,05,17,03,39,11.10
2008,05,17,03,40,11.10
2008,05,17,03,41,11.00
2008,05,17,03,42,11.00
2008,05,17,03,43,11.00
2008,05,17,03,44,11.00
2008,05,17,03,45,11.00
2008,05,17,03,46,11.00
2008,05,17,03,47,11.00
2008,05,17,03,48,11.00
2008,05,17,03,49,11.00
2008,05,17,03,50,10.90
2008,05,17,03,51,10.90
2008,05,17,03,52,10.90
2008,05,17,03,53,10.90
2008,05,17,03,54,10.90
2008,05,17,03,55,10.90
2008,05,17,03,56,10.90
2008,05,17,03,57,10.90
2008,05,17,03,58,10.90
2008,05,17,03,59,10.80
2008,05,17,04,00,10.80
2008,05,17,04,01,10.80
2008,05,17,04,02,10.80
2008,05,17,04,03,10.80
2008,05,17,04,04,10.80
2008,05,17,04,05,10.80
2008,05,17,04,06,10.80
2008,05,17,04,07,10.80
2008,05,17,04,08,10.90
2008,05,17,04,09,10.90
2008,05,17,04,10,10.90
2008,05,17,04,11,10.90
2008,05,17,04,12,10.80
2008,05,17,04,13,10.80
2008,05,17,04,14,10.80
2008,05,17,04,15,10.80
2008,05,17,04,16,10.80
2008,05,17,04,17,10.80
2008,05,17,04,18,10.80
2008,05,17,04,19,10.80
2008,05,17,04,20,10.80
2008,05,17,04,21,10.80
2008,05,17,04,22,10.80
2008,05,17,04,23,10.80
2008,05,17,04,24,10.80
2008,05,17,04,25,10.80
2008,05,17,04,26,10.80
2008,05,17,04,27,10.80
2008,05,17,04,28,10.80
2008,05,17,04,29,10.80
2008,05,17,04,30,10.80
2008,05,17,04,31,10.70
2008,05,17,04,32,10.70
2008,05,17,04,33,10.70
2008,05,17,04,34,10.70
2008,05,17,04,35,10.70
2008,05,17,04,36,10.70
2008,05,17,04,37,10.70
2008,05,17,04,38,10.70
2008,05,17,04,39,10.70
2008,05,17,04,40,10.60
2008,05,17,04,41,10.60
2008,05,17,04,42,10.60
2008,05,17,04,43,10.60
2008,05,17,04,44,10.60
2008,05,17,04,45,10.60
2008,05,17,04,46,10.60
2008,05,17,04,47,10.60
2008,05,17,04,48,10.60
2008,05,17,04,49,10.60
2008,05,17,04,50,10.60
2008,05,17,04,51,10.60
2008,05,17,04,52,10.60
2008,05,17,04,53,10.60
2008,05,17,04,54,10.60
2008,05,17,04,55,10.60
2008,05,17,04,56,10.60
2008,05,17,04,57,10.60
2008,05,17,04,58,10.60
2008,05,17,04,59,10.60
2008,05,17,05,00,10.60
2008,05,17,05,01,10.50
2008,05,17,05,02,10.50
2008,05,17,05,03,10.50
2008,05,17,05,04,10.50
2008,05,17,05,05,10.50
2008,05,17,05,06,10.50
2008,05,17,05,07,10.50
2008,05,17,05,08,10.50
2008,05,17,05,09,10.50
2008,05,17,05,10,10.60
2008,05,17,05,11,10.60
2008,05,17,05,12,10.60
2008,05,17,05,13,10.60
2008,05,17,05,14,10.60
2008,05,17,05,15,10.60
2008,05,17,05,16,10.60
2008,05,17,05,17,10.60
2008,05,17,05,18,10.60
2008,05,17,05,19,10.60
2008,05,17,05,20,10.60
2008,05,17,05,21,10.60
2008,05,17,05,22,10.60
2008,05,17,05,23,10.60
2008,05,17,05,24,10.60
2008,05,17,05,25,10.60
2008,05,17,05,26,10.60
2008,05,17,05,27,10.60
2008,05,17,05,28,10.60
2008,05,17,05,29,10.60
2008,05,17,05,30,10.60
2008,05,17,05,31,10.60
2008,05,17,05,32,10.50
2008,05,17,05,33,10.50
2008,05,17,05,34,10.50
2008,05,17,05,35,10.50
2008,05,17,05,36,10.50
2008,05,17,05,37,10.50
2008,05,17,05,38,10.50
2008,05,17,05,39,10.50
2008,05,17,05,40,10.50
2008,05,17,05,41,10.50
2008,05,17,05,42,10.50
2008,05,17,05,43,10.50
2008,05,17,05,44,10.40
2008,05,17,05,45,10.40
2008,05,17,05,46,10.50
2008,05,17,05,47,10.50
2008,05,17,05,48,10.50
2008,05,17,05,49,10.50
2008,05,17,05,50,10.50
2008,05,17,05,51,10.50
2008,05,17,05,52,10.50
2008,05,17,05,53,10.50
2008,05,17,05,54,10.50
2008,05,17,05,55,10.50
2008,05,17,05,56,10.50
2008,05,17,05,57,10.50
2008,05,17,05,58,10.50
2008,05,17,05,59,10.50
2008,05,17,06,00,10.50
2008,05,17,06,01,10.50
2008,05,17,06,02,10.50
2008,05,17,06,03,10.50
2008,05,17,06,04,10.50
2008,05,17,06,05,10.50
2008,05,17,06,06,10.50
2008,05,17,06,07,10.50
2008,05,17,06,08,10.50
2008,05,17,06,09,10.50
2008,05,17,06,10,10.60
2008,05,17,06,11,10.60
2008,05,17,06,12,10.60
2008,05,17,06,13,10.60
2008,05,17,06,14,10.60
2008,05,17,06,15,10.60
2008,05,17,06,16,10.60
2008,05,17,06,17,10.60
2008,05,17,06,18,10.60
2008,05,17,06,19,10.70
2008,05,17,06,20,10.70
2008,05,17,06,21,10.70
2008,05,17,06,22,10.70
2008,05,17,06,23,10.70
2008,05,17,06,24,10.70
2008,05,17,06,25,10.70
2008,05,17,06,26,10.80
2008,05,17,06,27,10.80
2008,05,17,06,28,10.80
2008,05,17,06,29,10.80
2008,05,17,06,30,10.80
2008,05,17,06,31,10.80
2008,05,17,06,32,10.80
2008,05,17,06,33,10.90
2008,05,17,06,34,10.90
2008,05,17,06,35,10.90
2008,05,17,06,36,10.90
2008,05,17,06,37,11.00
2008,05,17,06,38,11.00
2008,05,17,06,39,11.00
2008,05,17,06,40,11.10
2008,05,17,06,41,11.10
2008,05,17,06,42,11.10
2008,05,17,06,43,11.20
2008,05,17,06,44,11.20
2008,05,17,06,45,11.30
2008,05,17,06,46,11.30
2008,05,17,06,47,11.40
2008,05,17,06,48,11.40
2008,05,17,06,49,11.50
2008,05,17,06,50,11.60
2008,05,17,06,51,11.60
2008,05,17,06,52,11.70
2008,05,17,06,53,11.80
2008,05,17,06,54,11.90
2008,05,17,06,55,12.00
2008,05,17,06,56,12.10
2008,05,17,06,57,12.30
2008,05,17,06,58,12.40
2008,05,17,06,59,12.60
2008,05,17,07,00,12.70
2008,05,17,07,01,12.80
2008,05,17,07,02,12.90
2008,05,17,07,03,13.00
2008,05,17,07,04,13.00
2008,05,17,07,05,13.10
2008,05,17,07,06,13.20
2008,05,17,07,07,13.20
2008,05,17,07,08,13.30
2008,05,17,07,09,13.40
2008,05,17,07,10,13.50
2008,05,17,07,11,13.60
2008,05,17,07,12,13.80
2008,05,17,07,13,13.90
2008,05,17,07,14,14.00
2008,05,17,07,15,14.10
2008,05,17,07,16,14.30
2008,05,17,07,17,14.40
2008,05,17,07,18,14.60
2008,05,17,07,19,14.70
2008,05,17,07,20,14.80
2008,05,17,07,21,15.00
2008,05,17,07,22,15.00
2008,05,17,07,23,15.00
2008,05,17,07,24,15.20
2008,05,17,07,25,15.30
2008,05,17,07,26,15.40
2008,05,17,07,27,15.50
2008,05,17,07,28,15.60
2008,05,17,07,29,15.70
2008,05,17,07,30,15.80
2008,05,17,07,31,15.90
2008,05,17,07,32,16.10
2008,05,17,07,33,16.20
2008,05,17,07,34,16.30
2008,05,17,07,35,16.40
2008,05,17,07,36,16.50
2008,05,17,07,37,16.50
2008,05,17,07,38,16.60
2008,05,17,07,39,16.70
2008,05,17,07,40,16.80
2008,05,17,07,41,17.00
2008,05,17,07,42,17.10
2008,05,17,07,43,17.30
2008,05,17,07,44,17.50
2008,05,17,07,45,17.60
2008,05,17,07,46,17.70
2008,05,17,07,47,17.80
2008,05,17,07,48,18.00
2008,05,17,07,49,18.10
2008,05,17,07,50,18.30
2008,05,17,07,51,18.40
2008,05,17,07,52,18.50
2008,05,17,07,53,18.60
2008,05,17,07,54,18.70
2008,05,17,07,55,18.80
2008,05,17,07,56,18.90
2008,05,17,07,57,19.00
2008,05,17,07,58,19.00
2008,05,17,07,59,19.10
2008,05,17,08,00,19.20
2008,05,17,08,01,19.30
2008,05,17,08,02,19.40
2008,05,17,08,03,19.50
2008,05,17,08,04,19.60
2008,05,17,08,05,19.70
2008,05,17,08,06,19.80
2008,05,17,08,07,19.90
2008,05,17,08,08,20.00
2008,05,17,08,09,20.10
2008,05,17,08,10,20.20
2008,05,17,08,11,20.30
2008,05,17,08,12,20.40
2008,05,17,08,13,20.50
2008,05,17,08,14,20.60
2008,05,17,08,15,20.70
2008,05,17,08,16,20.80
2008,05,17,08,17,20.90
2008,05,17,08,18,21.00
2008,05,17,08,19,21.00
2008,05,17,08,20,21.10
2008,05,17,08,21,21.20
2008,05,17,08,22,21.30
2008,05,17,08,23,21.30
2008,05,17,08,24,21.30
2008,05,17,08,25,21.30
2008,05,17,08,26,21.30
2008,05,17,08,27,21.30
2008,05,17,08,28,21.30
2008,05,17,08,29,21.30
2008,05,17,08,30,21.30
2008,05,17,08,31,21.40
2008,05,17,08,32,21.40
2008,05,17,08,33,21.40
2008,05,17,08,34,21.50
2008,05,17,08,35,21.60
2008,05,17,08,36,21.60
2008,05,17,08,37,21.70
2008,05,17,08,38,21.80
2008,05,17,08,39,21.90
2008,05,17,08,40,22.00
2008,05,17,08,41,22.00
2008,05,17,08,42,22.10
2008,05,17,08,43,22.00
2008,05,17,08,44,21.90
2008,05,17,08,45,21.80
2008,05,17,08,46,21.70
2008,05,17,08,47,21.70
2008,05,17,08,48,21.70
2008,05,17,08,49,21.70
2008,05,17,08,50,21.70
2008,05,17,08,51,21.70
2008,05,17,08,52,21.60
2008,05,17,08,53,21.60
2008,05,17,08,54,21.60
2008,05,17,08,55,21.60
2008,05,17,08,56,21.60
2008,05,17,08,57,21.60
2008,05,17,08,58,21.60
2008,05,17,08,59,21.60
2008,05,17,09,00,21.60
2008,05,17,09,01,21.60
2008,05,17,09,02,21.70
2008,05,17,09,03,21.70
2008,05,17,09,04,21.80
2008,05,17,09,05,21.80
2008,05,17,09,06,21.70
2008,05,17,09,07,21.70
2008,05,17,09,08,21.70
2008,05,17,09,09,21.70
2008,05,17,09,10,21.70
2008,05,17,09,11,21.80
2008,05,17,09,12,21.90
2008,05,17,09,13,22.00
2008,05,17,09,14,22.20
2008,05,17,09,15,22.30
2008,05,17,09,16,22.30
2008,05,17,09,17,22.40
2008,05,17,09,18,22.40
2008,05,17,09,19,22.40
2008,05,17,09,20,22.40
2008,05,17,09,21,22.40
2008,05,17,09,22,22.40
2008,05,17,09,23,22.40
2008,05,17,09,24,22.40
2008,05,17,09,25,22.40
2008,05,17,09,26,22.50
2008,05,17,09,27,22.60
2008,05,17,09,28,22.70
2008,05,17,09,29,22.70
2008,05,17,09,30,22.60
2008,05,17,09,31,22.60
2008,05,17,09,32,22.50
2008,05,17,09,33,22.50
2008,05,17,09,34,22.50
2008,05,17,09,35,22.50
2008,05,17,09,36,22.50
2008,05,17,09,37,22.50
2008,05,17,09,38,22.60
2008,05,17,09,39,22.60
2008,05,17,09,40,22.50
2008,05,17,09,41,22.60
2008,05,17,09,42,22.60
2008,05,17,09,43,22.70
2008,05,17,09,44,22.70
2008,05,17,09,45,22.70
2008,05,17,09,46,22.80
2008,05,17,09,47,22.80
2008,05,17,09,48,22.80
2008,05,17,09,49,22.80
2008,05,17,09,50,22.80
2008,05,17,09,51,22.90
2008,05,17,09,52,22.90
2008,05,17,09,53,22.90
2008,05,17,09,54,23.00
2008,05,17,09,55,23.00
2008,05,17,09,56,23.00
2008,05,17,09,57,23.00
2008,05,17,09,58,23.00
2008,05,17,09,59,23.00
2008,05,17,10,00,22.90
2008,05,17,10,01,22.70
2008,05,17,10,02,22.70
2008,05,17,10,03,22.70
2008,05,17,10,04,22.70
2008,05,17,10,05,22.60
2008,05,17,10,06,22.60
2008,05,17,10,07,22.50
2008,05,17,10,08,22.40
2008,05,17,10,09,22.30
2008,05,17,10,10,22.30
2008,05,17,10,11,22.30
2008,05,17,10,12,22.40
2008,05,17,10,13,22.50
2008,05,17,10,14,22.70
2008,05,17,10,15,22.80
2008,05,17,10,16,22.90
2008,05,17,10,17,23.10
2008,05,17,10,18,23.10
2008,05,17,10,19,23.20
2008,05,17,10,20,23.10
2008,05,17,10,21,23.00
2008,05,17,10,22,23.00
2008,05,17,10,23,23.00
2008,05,17,10,24,23.00
2008,05,17,10,25,23.10
2008,05,17,10,26,23.30
2008,05,17,10,27,23.30
2008,05,17,10,28,23.40
2008,05,17,10,29,23.60
2008,05,17,10,30,23.60
2008,05,17,10,31,23.50
2008,05,17,10,32,23.30
2008,05,17,10,33,23.20
2008,05,17,10,34,23.10
2008,05,17,10,35,23.10
2008,05,17,10,36,23.10
2008,05,17,10,37,23.10
2008,05,17,10,38,23.10
2008,05,17,10,39,23.00
2008,05,17,10,40,23.00
2008,05,17,10,41,23.00
2008,05,17,10,42,23.00
2008,05,17,10,43,23.10
2008,05,17,10,44,23.00
2008,05,17,10,45,22.90
2008,05,17,10,46,22.90
2008,05,17,10,47,22.90
2008,05,17,10,48,23.00
2008,05,17,10,49,23.00
2008,05,17,10,50,23.10
2008,05,17,10,51,23.00
2008,05,17,10,52,23.00
2008,05,17,10,53,23.10
2008,05,17,10,54,23.10
2008,05,17,10,55,23.20
2008,05,17,10,56,23.30
2008,05,17,10,57,23.40
2008,05,17,10,58,23.40
2008,05,17,10,59,23.40
2008,05,17,11,00,23.40
2008,05,17,11,01,23.40
2008,05,17,11,02,23.40
2008,05,17,11,03,23.40
2008,05,17,11,04,23.50
2008,05,17,11,05,23.50
2008,05,17,11,06,23.50
2008,05,17,11,07,23.60
2008,05,17,11,08,23.50
2008,05,17,11,09,23.50
2008,05,17,11,10,23.40
2008,05,17,11,11,23.50
2008,05,17,11,12,23.60
2008,05,17,11,13,23.60
2008,05,17,11,14,23.50
2008,05,17,11,15,23.60
2008,05,17,11,16,23.70
2008,05,17,11,17,23.80
2008,05,17,11,18,24.00
2008,05,17,11,19,24.00
2008,05,17,11,20,24.10
2008,05,17,11,21,24.30
2008,05,17,11,22,24.30
2008,05,17,11,23,24.40
2008,05,17,11,24,24.40
2008,05,17,11,25,24.30
2008,05,17,11,26,24.30
2008,05,17,11,27,24.20
2008,05,17,11,28,24.20
2008,05,17,11,29,24.10
2008,05,17,11,30,24.00
2008,05,17,11,31,23.90
2008,05,17,11,32,23.70
2008,05,17,11,33,23.60
2008,05,17,11,34,23.40
2008,05,17,11,35,23.40
2008,05,17,11,36,23.50
2008,05,17,11,37,23.60
2008,05,17,11,38,23.60
2008,05,17,11,39,23.60
2008,05,17,11,40,23.70
2008,05,17,11,41,23.60
2008,05,17,11,42,23.50
2008,05,17,11,43,23.60
2008,05,17,11,44,23.60
2008,05,17,11,45,23.50
2008,05,17,11,46,23.50
2008,05,17,11,47,23.50
2008,05,17,11,48,23.60
2008,05,17,11,49,23.60
2008,05,17,11,50,23.60
2008,05,17,11,51,23.80
2008,05,17,11,52,23.90
2008,05,17,11,53,24.00
2008,05,17,11,54,24.10
2008,05,17,11,55,24.00
2008,05,17,11,56,23.90
2008,05,17,11,57,23.80
2008,05,17,11,58,23.80
2008,05,17,11,59,23.80
2008,05,17,12,00,23.80
2008,05,17,12,01,23.80
2008,05,17,12,02,23.70
2008,05,17,12,03,23.80
2008,05,17,12,04,23.80
2008,05,17,12,05,23.80
2008,05,17,12,06,23.80
2008,05,17,12,07,23.70
2008,05,17,12,08,23.70
2008,05,17,12,09,23.60
2008,05,17,12,10,23.60
2008,05,17,12,11,23.60
2008,05,17,12,12,23.60
2008,05,17,12,13,23.70
2008,05,17,12,14,23.80
2008,05,17,12,15,23.80
2008,05,17,12,16,23.80
2008,05,17,12,17,23.70
2008,05,17,12,18,23.70
2008,05,17,12,19,23.50
2008,05,17,12,20,23.40
2008,05,17,12,21,23.40
2008,05,17,12,22,23.30
2008,05,17,12,23,23.20
2008,05,17,12,24,23.10
2008,05,17,12,25,23.00
2008,05,17,12,26,23.00
2008,05,17,12,27,23.00
2008,05,17,12,28,23.10
2008,05,17,12,29,23.30
2008,05,17,12,30,23.50
2008,05,17,12,31,23.60
2008,05,17,12,32,23.80
2008,05,17,12,33,23.90
2008,05,17,12,34,23.90
2008,05,17,12,35,23.90
2008,05,17,12,36,23.80
2008,05,17,12,37,23.70
2008,05,17,12,38,23.70
2008,05,17,12,39,23.70
2008,05,17,12,40,23.60
2008,05,17,12,41,23.50
2008,05,17,12,42,23.50
2008,05,17,12,43,23.40
2008,05,17,12,44,23.30
2008,05,17,12,45,23.30
2008,05,17,12,46,23.30
2008,05,17,12,47,23.50
2008,05,17,12,48,23.60
2008,05,17,12,49,23.80
2008,05,17,12,50,24.00
2008,05,17,12,51,24.10
2008,05,17,12,52,24.00
2008,05,17,12,53,23.80
2008,05,17,12,54,23.80
2008,05,17,12,55,23.90
2008,05,17,12,56,24.00
2008,05,17,12,57,24.10
2008,05,17,12,58,24.20
2008,05,17,12,59,24.10
2008,05,17,13,00,24.10
2008,05,17,13,01,24.10
2008,05,17,13,02,24.10
2008,05,17,13,03,24.10
2008,05,17,13,04,24.10
2008,05,17,13,05,24.10
2008,05,17,13,06,24.10
2008,05,17,13,07,24.10
2008,05,17,13,08,24.20
2008,05,17,13,09,24.20
2008,05,17,13,10,24.10
2008,05,17,13,11,24.20
2008,05,17,13,12,24.20
2008,05,17,13,13,24.40
2008,05,17,13,14,24.50
2008,05,17,13,15,24.60
2008,05,17,13,16,24.80
2008,05,17,13,17,24.80
2008,05,17,13,18,24.80
2008,05,17,13,19,24.60
2008,05,17,13,20,24.50
2008,05,17,13,21,24.60
2008,05,17,13,22,24.70
2008,05,17,13,23,24.80
2008,05,17,13,24,24.60
2008,05,17,13,25,24.40
2008,05,17,13,26,24.30
2008,05,17,13,27,24.30
2008,05,17,13,28,24.30
2008,05,17,13,29,24.40
2008,05,17,13,30,24.40
2008,05,17,13,31,24.50
2008,05,17,13,32,24.60
2008,05,17,13,33,24.60
2008,05,17,13,34,24.60
2008,05,17,13,35,24.60
2008,05,17,13,36,24.60
2008,05,17,13,37,24.70
2008,05,17,13,38,24.90
2008,05,17,13,39,25.10
2008,05,17,13,40,25.20
2008,05,17,13,41,25.20
2008,05,17,13,42,25.10
2008,05,17,13,43,25.00
2008,05,17,13,44,24.80
2008,05,17,13,45,24.80
2008,05,17,13,46,24.70
2008,05,17,13,47,24.70
2008,05,17,13,48,24.60
2008,05,17,13,49,24.60
2008,05,17,13,50,24.60
2008,05,17,13,51,24.70
2008,05,17,13,52,24.60
2008,05,17,13,53,24.60
2008,05,17,13,54,24.60
2008,05,17,13,55,24.70
2008,05,17,13,56,24.70
2008,05,17,13,57,24.80
2008,05,17,13,58,24.90
2008,05,17,13,59,24.90
2008,05,17,14,00,24.80
2008,05,17,14,01,24.80
2008,05,17,14,02,24.90
2008,05,17,14,03,25.00
2008,05,17,14,04,25.20
2008,05,17,14,05,25.40
2008,05,17,14,06,25.50
2008,05,17,14,07,25.60
2008,05,17,14,08,25.80
2008,05,17,14,09,25.90
2008,05,17,14,10,25.90
2008,05,17,14,11,25.90
2008,05,17,14,12,25.90
2008,05,17,14,13,25.90
2008,05,17,14,14,25.90
2008,05,17,14,15,25.90
2008,05,17,14,16,25.90
2008,05,17,14,17,25.90
2008,05,17,14,18,25.90
2008,05,17,14,19,25.90
2008,05,17,14,20,25.90
2008,05,17,14,21,25.90
2008,05,17,14,22,25.90
2008,05,17,14,23,25.80
2008,05,17,14,24,25.90
2008,05,17,14,25,25.90
2008,05,17,14,26,25.90
2008,05,17,14,27,25.90
2008,05,17,14,28,25.80
2008,05,17,14,29,25.70
2008,05,17,14,30,25.50
2008,05,17,14,31,25.40
2008,05,17,14,32,25.20
2008,05,17,14,33,25.10
2008,05,17,14,34,25.10
2008,05,17,14,35,25.10
2008,05,17,14,36,25.10
2008,05,17,14,37,25.00
2008,05,17,14,38,25.00
2008,05,17,14,39,25.10
2008,05,17,14,40,25.20
2008,05,17,14,41,25.20
2008,05,17,14,42,25.40
2008,05,17,14,43,25.60
2008,05,17,14,44,25.70
2008,05,17,14,45,25.80
2008,05,17,14,46,25.80
2008,05,17,14,47,25.80
2008,05,17,14,48,25.90
2008,05,17,14,49,25.90
2008,05,17,14,50,25.90
2008,05,17,14,51,25.90
2008,05,17,14,52,25.90
2008,05,17,14,53,26.00
2008,05,17,14,54,25.90
2008,05,17,14,55,25.90
2008,05,17,14,56,25.90
2008,05,17,14,57,25.90
2008,05,17,14,58,26.00
2008,05,17,14,59,26.10
2008,05,17,15,00,26.00
2008,05,17,15,01,26.00
2008,05,17,15,02,25.90
2008,05,17,15,03,25.90
2008,05,17,15,04,25.90
2008,05,17,15,05,25.70
2008,05,17,15,06,25.70
2008,05,17,15,07,25.70
2008,05,17,15,08,25.90
2008,05,17,15,09,26.10
2008,05,17,15,10,26.20
2008,05,17,15,11,26.30
2008,05,17,15,12,26.30
2008,05,17,15,13,26.30
2008,05,17,15,14,26.40
2008,05,17,15,15,26.40
2008,05,17,15,16,26.30
2008,05,17,15,17,26.30
2008,05,17,15,18,26.40
2008,05,17,15,19,26.50
2008,05,17,15,20,26.70
2008,05,17,15,21,26.80
2008,05,17,15,22,27.00
2008,05,17,15,23,27.10
2008,05,17,15,24,27.20
2008,05,17,15,25,27.20
2008,05,17,15,26,27.10
2008,05,17,15,27,26.90
2008,05,17,15,28,26.70
2008,05,17,15,29,26.60
2008,05,17,15,30,26.50
2008,05,17,15,31,26.50
2008,05,17,15,32,26.60
2008,05,17,15,33,26.60
2008,05,17,15,34,26.60
2008,05,17,15,35,26.70
2008,05,17,15,36,26.80
2008,05,17,15,37,26.80
2008,05,17,15,38,26.80
2008,05,17,15,39,26.90
2008,05,17,15,40,26.90
2008,05,17,15,41,26.90
2008,05,17,15,42,26.90
2008,05,17,15,43,26.80
2008,05,17,15,44,26.90
2008,05,17,15,45,27.00
2008,05,17,15,46,27.10
2008,05,17,15,47,27.20
2008,05,17,15,48,27.20
2008,05,17,15,49,27.20
2008,05,17,15,50,27.10
2008,05,17,15,51,27.00
2008,05,17,15,52,26.90
2008,05,17,15,53,26.90
2008,05,17,15,54,27.00
2008,05,17,15,55,27.10
2008,05,17,15,56,27.30
2008,05,17,15,57,27.40
2008,05,17,15,58,27.30
2008,05,17,15,59,27.30
2008,05,17,16,00,27.30
2008,05,17,16,01,27.40
2008,05,17,16,02,27.40
2008,05,17,16,03,27.50
2008,05,17,16,04,27.60
2008,05,17,16,05,27.60
2008,05,17,16,06,27.70
2008,05,17,16,07,27.80
2008,05,17,16,08,27.80
2008,05,17,16,09,27.90
2008,05,17,16,10,27.90
2008,05,17,16,11,27.90
2008,05,17,16,12,27.90
2008,05,17,16,13,27.90
2008,05,17,16,14,27.80
2008,05,17,16,15,27.70
2008,05,17,16,16,27.70
2008,05,17,16,17,27.70
2008,05,17,16,18,27.70
2008,05,17,16,19,27.60
2008,05,17,16,20,27.70
2008,05,17,16,21,27.60
2008,05,17,16,22,27.60
2008,05,17,16,23,27.70
2008,05,17,16,24,27.60
2008,05,17,16,25,27.60
2008,05,17,16,26,27.60
2008,05,17,16,27,27.60
2008,05,17,16,28,27.70
2008,05,17,16,29,27.70
2008,05,17,16,30,27.80
2008,05,17,16,31,27.60
2008,05,17,16,32,27.40
2008,05,17,16,33,27.20
2008,05,17,16,34,27.10
2008,05,17,16,35,27.00
2008,05,17,16,36,27.00
2008,05,17,16,37,27.00
2008,05,17,16,38,27.00
2008,05,17,16,39,26.90
2008,05,17,16,40,26.90
2008,05,17,16,41,27.00
2008,05,17,16,42,27.10
2008,05,17,16,43,27.20
2008,05,17,16,44,27.40
2008,05,17,16,45,27.40
2008,05,17,16,46,27.50
2008,05,17,16,47,27.60
2008,05,17,16,48,27.70
2008,05,17,16,49,27.80
2008,05,17,16,50,27.80
2008,05,17,16,51,27.90
2008,05,17,16,52,28.00
2008,05,17,16,53,28.10
2008,05,17,16,54,28.10
2008,05,17,16,55,28.10
2008,05,17,16,56,28.10
2008,05,17,16,57,28.10
2008,05,17,16,58,28.20
2008,05,17,16,59,28.30
2008,05,17,17,00,28.40
2008,05,17,17,01,28.40
2008,05,17,17,02,28.40
2008,05,17,17,03,28.40
2008,05,17,17,04,28.30
2008,05,17,17,05,28.30
2008,05,17,17,06,28.40
2008,05,17,17,07,28.70
2008,05,17,17,08,28.90
2008,05,17,17,09,29.10
2008,05,17,17,10,29.30
2008,05,17,17,11,29.40
2008,05,17,17,12,29.50
2008,05,17,17,13,29.60
2008,05,17,17,14,29.70
2008,05,17,17,15,29.70
2008,05,17,17,16,29.80
2008,05,17,17,17,29.80
2008,05,17,17,18,29.80
2008,05,17,17,19,29.80
2008,05,17,17,20,29.80
2008,05,17,17,21,29.80
2008,05,17,17,22,29.80
2008,05,17,17,23,29.80
2008,05,17,17,24,29.70
2008,05,17,17,25,29.70
2008,05,17,17,26,29.70
2008,05,17,17,27,29.70
2008,05,17,17,28,29.70
2008,05,17,17,29,29.80
2008,05,17,17,30,29.80
2008,05,17,17,31,29.90
2008,05,17,17,32,29.80
2008,05,17,17,33,29.80
2008,05,17,17,34,29.80
2008,05,17,17,35,29.60
2008,05,17,17,36,29.40
2008,05,17,17,37,29.40
2008,05,17,17,38,29.30
2008,05,17,17,39,29.20
2008,05,17,17,40,29.20
2008,05,17,17,41,29.20
2008,05,17,17,42,29.30
2008,05,17,17,43,29.30
2008,05,17,17,44,29.30
2008,05,17,17,45,29.20
2008,05,17,17,46,29.30
2008,05,17,17,47,29.30
2008,05,17,17,48,29.40
2008,05,17,17,49,29.50
2008,05,17,17,50,29.60
2008,05,17,17,51,29.70
2008,05,17,17,52,29.70
2008,05,17,17,53,29.70
2008,05,17,17,54,29.70
2008,05,17,17,55,29.70
2008,05,17,17,56,29.70
2008,05,17,17,57,29.70
2008,05,17,17,58,29.70
2008,05,17,17,59,29.60
2008,05,17,18,00,29.60
2008,05,17,18,01,29.50
2008,05,17,18,02,29.50
2008,05,17,18,03,29.40
2008,05,17,18,04,29.40
2008,05,17,18,05,29.30
2008,05,17,18,06,29.30
2008,05,17,18,07,29.20
2008,05,17,18,08,29.20